Louisville, KY

12:28 PM EDT on September 26, 2016 (GMT -0400)
Louisville International-Standiford

Weather History for KSDF - October, 2012

Change the Weather History Date:

Saturday, October 6, 2012

  Actual Average Record
Temperature  
Mean Temperature 50 °F 63 °F  
Max Temperature 59 °F 74 °F 91 °F (1941)
Min Temperature 40 °F 52 °F 34 °F (1980)
Degree Days  
Heating Degree Days 15 5  
Month to date heating degree days 23 24  
Since 1 July heating degree days 55 54  
Cooling Degree Days 0 2  
Month to date cooling degree days 4 16  
Year to date cooling degree days 1925 1583  
Moisture  
Dew Point 37 °F    
Average Humidity 64    
Maximum Humidity 96    
Minimum Humidity 31    
Precipitation  
Precipitation 0.10 in 0.11 in 2.31 in (1910)
Month to date precipitation 1.29 0.64  
Year to date precipitation 36.69 34.91  
Snow  
Snow 0.00 in 0.00 in T in (1952)
Month to date snowfall 0.0 0.0  
Since 1 July snowfall 0.0 0.0  
Since 1 September snowfall 0.0 0.0  
Snow Depth 0.00 in    
Sea Level Pressure  
Sea Level Pressure 30.13 in    
Wind  
Wind Speed 8 mph (NW)    
Max Wind Speed 16 mph    
Max Gust Speed 25 mph    
Visibility 10 miles    
Events Rain    
T = Trace of Precipitation, MM = Missing Value Source: NWS Daily Summary

Daily Weather History Graph

Daily Weather History Graph

Search for Another Location

Airport or City:

Trip Planner

Search our weather history database for the weather conditions in past years. The results will help you decide how hot, cold, wet, or windy it might be!

Date:

Astronomy

Oct. 06, 2012 Rise Set
Actual Time 7:43 AM EDT 7:17 PM EDT
Civil Twilight 7:17 AM EDT 7:43 PM EDT
Nautical Twilight 6:46 AM EDT 8:14 PM EDT
Astronomical Twilight 6:16 AM EDT 8:44 PM EDT
Moon 11:36 PM EDT (10/6) 1:33 PM EDT (10/6)
Length of Visible Light 12h 26m
Length of Day
11h 33m
Waning Gibbous, 65% of the Moon is Illuminated
Oct 6
Waning Gibbous
Oct 8
Last Quarter
Oct 15
New
Oct 21
First Quarter
Oct 29
Full

Hourly Weather History & Observations

Time (EDT) Temp. Windchill Dew Point Humidity Pressure Visibility Wind Dir Wind Speed Gust Speed Precip Events Conditions
12:16 AM 44.6 °F 37.8 °F 42.8 °F 93% 30.09 in 8.0 mi NNW 15.0 mph 26.5 mph 0.00 in Rain Light Rain
12:30 AM 44.6 °F 36.9 °F 42.8 °F 93% 30.11 in 10.0 mi NNW 18.4 mph 32.2 mph 0.00 in Rain Light Rain
12:56 AM 45.0 °F 41.8 °F 42.1 °F 90% 30.08 in 5.0 mi North 5.8 mph - 0.03 in Rain Light Rain
1:27 AM 44.6 °F 39.7 °F 42.8 °F 93% 30.09 in 8.0 mi NNW 9.2 mph - N/A Rain Light Rain
1:37 AM 44.6 °F 38.8 °F 42.8 °F 93% 30.09 in 8.0 mi North 11.5 mph - 0.05 in Rain Light Rain
1:56 AM 45.0 °F 38.9 °F 43.0 °F 93% 30.09 in 7.0 mi North 12.7 mph - 0.05 in Rain Light Rain
2:36 AM 44.6 °F 40.7 °F 42.8 °F 93% 30.11 in 10.0 mi NW 6.9 mph - 0.06 in Rain Light Rain
2:56 AM 43.0 °F 36.4 °F 41.0 °F 93% 30.12 in 10.0 mi NNW 12.7 mph - 0.06 in Rain Light Rain
3:24 AM 42.8 °F 37.5 °F 41.0 °F 93% 30.12 in 10.0 mi NNW 9.2 mph - 0.00 in Rain Light Rain
3:56 AM 44.1 °F 39.0 °F 42.1 °F 93% 30.11 in 10.0 mi NNW 9.2 mph - 0.00 in   Overcast
4:02 AM 42.8 °F 37.0 °F 41.0 °F 93% 30.11 in 10.0 mi NNW 10.4 mph - N/A   Overcast
4:22 AM 42.8 °F 38.0 °F 41.0 °F 93% 30.11 in 10.0 mi NNW 8.1 mph - N/A   Overcast
4:53 AM 42.8 °F 38.0 °F 39.2 °F 87% 30.11 in 10.0 mi NNW 8.1 mph - N/A   Scattered Clouds
4:56 AM 41.0 °F 35.2 °F 39.9 °F 96% 30.11 in 10.0 mi NNW 9.2 mph - N/A   Scattered Clouds
5:56 AM 43.0 °F 38.2 °F 39.9 °F 89% 30.13 in 10.0 mi WNW 8.1 mph - N/A   Scattered Clouds
6:56 AM 41.0 °F 37.1 °F 39.0 °F 93% 30.15 in 10.0 mi WNW 5.8 mph - N/A   Scattered Clouds
7:56 AM 41.0 °F 36.4 °F 37.9 °F 89% 30.16 in 10.0 mi WNW 6.9 mph - N/A   Scattered Clouds
8:56 AM 43.0 °F 39.5 °F 39.0 °F 86% 30.19 in 10.0 mi NW 5.8 mph - N/A   Scattered Clouds
9:56 AM 45.0 °F 41.8 °F 37.9 °F 76% 30.21 in 10.0 mi WNW 5.8 mph - N/A   Mostly Cloudy
10:56 AM 48.9 °F - 36.0 °F 61% 30.20 in 10.0 mi Calm Calm - N/A   Scattered Clouds
11:56 AM 51.1 °F - 33.1 °F 50% 30.18 in 10.0 mi North 6.9 mph - N/A   Scattered Clouds
12:56 PM 54.0 °F - 33.1 °F 45% 30.17 in 10.0 mi North 6.9 mph - N/A   Mostly Cloudy
1:56 PM 55.0 °F - 30.9 °F 40% 30.14 in 10.0 mi Variable 5.8 mph - N/A   Mostly Cloudy
2:56 PM 57.9 °F - 30.0 °F 35% 30.12 in 10.0 mi NW 4.6 mph - N/A   Mostly Cloudy
3:56 PM 59.0 °F - 28.9 °F 32% 30.12 in 10.0 mi WNW 6.9 mph - N/A   Scattered Clouds
4:56 PM 59.0 °F - 32.0 °F 36% 30.12 in 10.0 mi WNW 8.1 mph - N/A   Mostly Cloudy
5:56 PM 55.9 °F - 32.0 °F 40% 30.13 in 10.0 mi NW 11.5 mph - N/A   Overcast
6:56 PM 55.0 °F - 30.9 °F 40% 30.13 in 10.0 mi NW 13.8 mph - N/A   Overcast
7:56 PM 53.1 °F - 33.1 °F 47% 30.14 in 10.0 mi NW 10.4 mph - N/A   Overcast
8:56 PM 52.0 °F - 35.1 °F 53% 30.14 in 10.0 mi NW 10.4 mph - N/A   Overcast
9:56 PM 51.1 °F - 36.0 °F 56% 30.14 in 10.0 mi NNW 12.7 mph - N/A   Overcast
10:56 PM 51.1 °F - 36.0 °F 56% 30.16 in 10.0 mi NW 6.9 mph - N/A   Overcast
11:56 PM 50.0 °F - 36.0 °F 59% 30.16 in 10.0 mi NW 5.8 mph - N/A   Overcast